Poiana Brasov, Romania 16 day weather forecast

Slopes altitude range 1030 m - 1780m

Number of lifts: 11 Pistes: 20km

In some cases the lift and piste totals shown are for the ski domain (e.g. Three Valleys) rather than individual resort (e.g. Courchevel)

Overview

The 16 day weather forecast is fully updated 4 times every day.

    • Sun 25 FEB 2018
    • Sun 25
    • -10C -6C
    • Mon 26 FEB 2018
    • Mon 26
    • -12C -7C
    • Tue 27 FEB 2018
    • Tue 27
    • -13C -7C
    • Wed 28 FEB 2018
    • Wed 28
    • -12C -7C
    • Thu 01 MAR 2018
    • Thu 01
    • -13C -7C
    • Fri 02 MAR 2018
    • Fri 02
    • -7C -1C
    • Sat 03 MAR 2018
    • Sat 03
    • -2C 2C
    • Sun 04 MAR 2018
    • Sun 04
    • 1C 5C
    • Mon 05 MAR 2018
    • Mon 05
    • 2C 11C
    • Tue 06 MAR 2018
    • Tue 06
    • 4C 14C
    • Wed 07 MAR 2018
    • Wed 07
    • 4C 13C
    • Thu 08 MAR 2018
    • Thu 08
    • 6C 10C
    • Fri 09 MAR 2018
    • Fri 09
    • 1C 12C
    • Sat 10 MAR 2018
    • Sat 10
    • 4C 11C
    • Sun 11 MAR 2018
    • Sun 11
    • 2C 5C
    • Mon 12 MAR 2018
    • Mon 12
    • -2C 8C

Date:

Time Type 0°C level Temp Chill Snow Cloud Speed Gust Dir Press
3:00 0m -10°C -10_3 1cm 94% 3mph 5mph 1019mB
6:00 0m -10°C -10_3 1cm 97% 3mph 5mph 1020mB
9:00 6m -10°C -10_3 1cm 100% 3mph 3mph 1020mB
12:00 173m -6°C -6_2 1cm 100% 2mph 2mph 1019mB
15:00 0m -6°C -6_2 1cm 100% 2mph 3mph 1019mB
18:00 0m -6°C -6_3 3cm 100% 3mph 5mph 1021mB
21:00 0m -11°C -11_2 1cm 100% 2mph 4mph 1022mB
0:00 0m -12°C -12_2 2cm 100% 2mph 3mph 1022mB
3:00 0m -12°C -12_2 1cm 100% 2mph 3mph 1021mB
6:00 0m -12°C -12_3 1cm 100% 3mph 4mph 1020mB
9:00 0m -12°C -12_3 1cm 100% 3mph 4mph 1019mB
12:00 18m -7°C -7_4 1cm 100% 4mph 4mph 1017mB
15:00 0m -8°C -8_5 1cm 100% 5mph 8mph 1017mB
18:00 0m -8°C -8_5 3cm 100% 5mph 9mph 1017mB
21:00 0m -13°C -13_5 1cm 100% 5mph 8mph 1017mB
0:00 0m -13°C -13_5 2cm 100% 5mph 8mph 1016mB
3:00 0m -14°C -14_4 1cm 100% 4mph 8mph 1015mB
6:00 0m -14°C -14_4 1cm 100% 4mph 6mph 1015mB
9:00 0m -13°C -13_2 1cm 100% 2mph 2mph 1015mB
12:00 3m -7°C -7_1 2cm 100% 1mph 2mph 1015mB
15:00 0m -8°C -8_1 1cm 100% 1mph 2mph 1016mB
18:00 0m -8°C -8_4 1cm 94% 4mph 5mph 1018mB
21:00 0m -14°C -14_4 0cm 53% 4mph 5mph 1020mB
0:00 0m -16°C -16_3 0cm 50% 3mph 4mph 1020mB
3:00 0m -16°C -16_2 0cm 93% 2mph 3mph 1020mB
6:00 0m -16°C -16_2 0cm 96% 2mph 2mph 1020mB
9:00 0m -12°C -12_2 1cm 100% 2mph 2mph 1019mB
12:00 0m -7°C -7_5 2cm 100% 5mph 8mph 1017mB
15:00 0m -8°C -8_6 2cm 100% 6mph 11mph 1018mB
18:00 0m -8°C -8_7 3cm 100% 7mph 12mph 1020mB
21:00 0m -12°C -12_6 1cm 100% 6mph 11mph 1021mB
0:00 0m -13°C -13_6 1cm 100% 6mph 12mph 1021mB
3:00 0m -13°C -13_6 1cm 97% 6mph 11mph 1021mB
6:00 0m -15°C -15_6 0cm 87% 6mph 11mph 1022mB
9:00 1m -13°C -13_6 0cm 32% 6mph 8mph 1022mB
12:00 104m -7°C -7_6 0cm 51% 6mph 7mph 1020mB
15:00 2m -7°C -7_5 0cm 94% 5mph 7mph 1020mB
18:00 0m -7°C -7_1 0cm 62% 1mph 2mph 1022mB
21:00 0m -15°C -15_4 0cm 32% 4mph 4mph 1022mB
0:00 0m -15°C -15_5 0cm 58% 5mph 6mph 1021mB
3:00 0m -12°C -12_5 0cm 99% 5mph 5mph 1020mB
6:00 17m -12°C -12_5 0cm 99% 5mph 8mph 1020mB
9:00 729m -7°C -7_5 0cm 100% 5mph 8mph 1018mB
12:00 1026m -1°C -1_6 0cm 99% 6mph 10mph 1015mB
15:00 849m -1°C -1_7 0cm 81% 7mph 11mph 1015mB
18:00 428m -1°C -1_8 0cm 87% 8mph 13mph 1015mB
21:00 404m -5°C -5_8 0cm 95% 8mph 14mph 1015mB
0:00 386m -5°C -5_7 0cm 93% 7mph 12mph 1015mB
3:00 546m -5°C -5_7 0cm 91% 7mph 11mph 1013mB
6:00 832m -5°C -5_8 0cm 94% 8mph 15mph 1013mB
9:00 1252m -2°C -2_9 0cm 100% 9mph 17mph 1012mB
12:00 1340m 2°C 2_10 0cm 100% 10mph 18mph 1010mB
15:00 1286m 2°C 2_9 0cm 100% 9mph 18mph 1010mB
18:00 1135m 2°C 2_10 0cm 100% 10mph 19mph 1011mB
21:00 1133m 0°C 0_9 1cm 100% 9mph 18mph 1010mB
0:00 1431m 0°C 0_8 1cm 100% 8mph 15mph 1009mB
3:00 1561m 0°C 0_5 1cm 100% 5mph 8mph 1009mB
6:00 1547m 0°C 0_1 1cm 100% 1mph 1mph 1009mB
9:00 1595m 1°C 1_3 0cm 100% 3mph 5mph 1008mB
12:00 1622m 5°C 5_3 0cm 96% 3mph 4mph 1007mB
15:00 1625m 7°C 7_4 0cm 33% 4mph 4mph 1006mB
18:00 1397m 7°C 7_2 0cm 24% 2mph 3mph 1007mB
21:00 1393m 0°C 0_2 0cm 24% 2mph 3mph 1007mB
0:00 1362m 0°C 0_1 0cm 15% 1mph 1mph 1007mB
3:00 632m 0°C 0_2 0cm 9% 2mph 3mph 1006mB
6:00 1695m -1°C -1_2 0cm 11% 2mph 3mph 1006mB
9:00 1984m 2°C 2_4 0cm 54% 4mph 6mph 1004mB
12:00 2250m 11°C 11_3 0cm 66% 3mph 7mph 1002mB
15:00 2328m 11°C 11_2 0cm 94% 2mph 3mph 1002mB
18:00 2230m 11°C 11_4 0cm 87% 4mph 4mph 1002mB
21:00 2209m 4°C 4_3 0cm 70% 3mph 4mph 1001mB
0:00 2156m 2°C 2_1 0cm 70% 1mph 2mph 1000mB
3:00 2375m 1°C 1_2 0cm 49% 2mph 3mph 1000mB
6:00 2463m 1°C 1_2 0cm 70% 2mph 2mph 1000mB
9:00 2448m 4°C 4_1 0cm 95% 1mph 2mph 998mB
12:00 2393m 14°C 14_5 0cm 95% 5mph 10mph 996mB
15:00 2164m 14°C 14_7 0cm 93% 7mph 15mph 996mB
18:00 2136m 14°C 14_6 0cm 97% 6mph 21mph 997mB
21:00 1833m 5°C 5_6 0cm 100% 6mph 19mph 999mB
0:00 1907m 4°C 4_5 0cm 90% 5mph 8mph 1000mB
Afternoon 0mm 0 2129m 13°C 13_8 0cm 65% 8mph 17mph 1000mB
Morning 0.046875mm 0 2228m 6°C 6_6 0cm 39% 6mph 21mph 1001mB
Afternoon 0.140625mm 0.3125 1722m 10°C 10_16 0cm 64% 16mph 31mph 998mB
Morning 0mm 0 1264m 2°C 2_7 0cm 20% 7mph 24mph 1006mB
Afternoon 0mm 0 1813m 12°C 12_4 0cm 73% 4mph 7mph 1006mB
Morning 0.197917mm 0.3125 1824m 4°C 4_4 0cm 64% 4mph 8mph 1005mB
Afternoon 0.130208mm 0.0625 1955m 11°C 11_6 0cm 95% 6mph 9mph 1002mB
Morning 0.125mm 0.375 1629m 5°C 5_7 0cm 58% 7mph 25mph 1003mB
Afternoon 0.0520833mm 0.125 1098m 5°C 5_6 1cm 79% 6mph 10mph 1016mB
Morning 0.00520833mm 0 408m -2°C -2_2 0cm 28% 2mph 2mph 1026mB
Afternoon 0mm 0 1428m 8°C 8_5 0cm 18% 5mph 7mph 1022mB
Morning 0mm 0 677m -1°C -1_5 0cm 80% 5mph 9mph 1016mB

16 day outlook at a glance

Forecast issued: 25/02/2018 07:17:53

Chat

Your comments and questions. In a resort? Let us know what it's like!


Characters left 250

For terms and conditions see Readers Comments on the Cookie and privacy policy page.